| time (UTC) | temp C | wind direction | speed KPH | gust KPH | rain 1hr cm | rain 24hr cm | rain mn cm | humidity % | barometer mb |
| 20260901003802 | 26 | 118 | 1.6 | 1.6 | 0.00 | 0.76 | 0.76 | 86 | 1010.5 |
| 20260901003257 | 26 | 122 | 0.0 | 3.2 | 0.00 | 0.76 | 0.76 | 86 | 1010.9 |
| 20260901002751 | 26 | 120 | 0.0 | 1.6 | 0.00 | 0.76 | 0.76 | 87 | 1010.5 |
| 20260901002246 | 27 | 125 | 1.6 | 3.2 | 0.00 | 0.76 | 0.76 | 85 | 1010.5 |
| 20260901001741 | 27 | 116 | 1.6 | 3.2 | 0.00 | 0.76 | 0.76 | 85 | 1010.4 |
| 20260901001236 | 26 | 119 | 3.2 | 8.0 | 0.00 | 0.76 | 0.76 | 89 | 1010.8 |
| 20260901000726 | 25 | 117 | 3.2 | 4.8 | 0.00 | 0.76 | 0.76 | 95 | 1010.4 |
| 20260901000221 | 25 | 121 | 0.0 | 0.0 | 0.00 | 0.76 | 0.76 | 97 | 1010.5 |
| 20260831235720 | 25 | 119 | 0.0 | 0.0 | 0.00 | 0.76 | 0.76 | 97 | 1010.2 |
| 20260831235216 | 25 | 122 | 0.0 | 0.0 | 0.00 | 0.76 | 0.76 | 97 | 1010.1 |
| 20260831234715 | 25 | 119 | 0.0 | 1.6 | 0.00 | 0.76 | 0.76 | 96 | 1009.9 |
| 20260831234210 | 25 | 121 | 1.6 | 3.2 | 0.00 | 0.76 | 0.76 | 96 | 1009.3 |
| 20260831233705 | 25 | 122 | 0.0 | 1.6 | 0.00 | 0.76 | 0.76 | 96 | 1008.8 |
| 20260831233201 | 25 | 114 | 3.2 | 3.2 | 0.00 | 0.76 | 0.76 | 98 | 1009.3 |
| 20260831232655 | 25 | 121 | 0.0 | 1.6 | 0.00 | 0.76 | 0.76 | 98 | 1010.5 |
| 20260831232152 | 25 | 127 | 0.0 | 0.0 | 0.00 | 0.76 | 0.76 | 98 | 1010.8 |
| 20260831231648 | 25 | 131 | 1.6 | 1.6 | 0.00 | 0.76 | 0.76 | 98 | 1010.8 |
| 20260831231143 | 25 | 83 | 0.0 | 0.0 | 0.00 | 0.76 | 0.76 | 98 | 1011.0 |
| 20260831230638 | 26 | 89 | 0.0 | 1.6 | 0.00 | 0.76 | 0.76 | 98 | 1010.6 |
| 20260831230133 | 26 | 87 | 0.0 | 1.6 | 0.00 | 0.76 | 0.76 | 97 | 1010.4 |
| 20260831225628 | 26 | 89 | 0.0 | 0.0 | 0.00 | 0.76 | 0.76 | 98 | 1010.3 |
| 20260831225123 | 26 | 93 | 0.0 | 0.0 | 0.00 | 0.76 | 0.76 | 97 | 1010.1 |
| 20260831224618 | 26 | 87 | 0.0 | 0.0 | 0.00 | 0.76 | 0.76 | 97 | 1010.1 |
| 20260831224113 | 26 | 97 | 0.0 | 0.0 | 0.00 | 0.76 | 0.76 | 96 | 1010.3 |
| 20260831223609 | 26 | 92 | 0.0 | 0.0 | 0.00 | 0.76 | 0.76 | 95 | 1010.5 |
| 20260831223105 | 26 | 94 | 0.0 | 0.0 | 0.13 | 0.76 | 0.76 | 95 | 1010.3 |
| 20260831222600 | 26 | 87 | 0.0 | 1.6 | 1.68 | 0.76 | 0.76 | 93 | 1010.2 |
| 20260831222100 | 28 | 70 | 1.6 | 1.6 | 1.50 | 0.71 | 0.71 | 88 | 1010.2 |
| 20260831221556 | 28 | 132 | 0.0 | 0.0 | 0.00 | 0.46 | 0.46 | 79 | 1010.4 |
| 20260831221051 | 28 | 111 | 0.0 | 0.0 | 0.00 | 0.46 | 0.46 | 80 | 1010.5 |
| 20260831220550 | 29 | 92 | 0.0 | 0.0 | 0.00 | 0.46 | 0.46 | 79 | 1010.2 |
| 20260831220046 | 30 | 98 | 0.0 | 0.0 | 0.00 | 0.46 | 0.46 | 77 | 1010.2 |
| 20260831215542 | 30 | 114 | 0.0 | 1.6 | 0.00 | 0.46 | 0.46 | 75 | 1009.9 |
| 20260831215037 | 30 | 158 | 3.2 | 3.2 | 0.00 | 0.46 | 0.46 | 72 | 1010.1 |
| 20260831214535 | 30 | 135 | 1.6 | 3.2 | 0.00 | 0.46 | 0.46 | 71 | 1010.0 |
| 20260831214031 | 30 | 210 | 4.8 | 9.7 | 0.00 | 0.46 | 0.46 | 71 | 1009.5 |
| 20260831213527 | 29 | 99 | 1.6 | 9.7 | 0.00 | 0.46 | 0.46 | 73 | 1009.7 |
| 20260831213022 | 29 | 114 | 1.6 | 3.2 | 0.00 | 0.46 | 0.46 | 76 | 1009.8 |
| 20260831212518 | 29 | 121 | 0.0 | 3.2 | 0.18 | 0.46 | 0.46 | 76 | 1009.7 |
| 20260831212013 | 30 | 203 | 4.8 | 8.0 | 0.18 | 0.46 | 0.46 | 73 | 1009.5 |
| 20260831211508 | 30 | 200 | 4.8 | 9.7 | 0.00 | 0.43 | 0.43 | 70 | 1010.0 |
| 20260831211007 | 31 | 215 | 4.8 | 11.3 | 0.00 | 0.43 | 0.43 | 70 | 1009.8 |
| 20260831210503 | 31 | 122 | 1.6 | 4.8 | 0.00 | 0.43 | 0.43 | 71 | 1009.7 |
| 20260831205958 | 31 | 118 | 0.0 | 3.2 | 0.00 | 0.43 | 0.43 | 73 | 1010.0 |
| 20260831205453 | 31 | 121 | 1.6 | 3.2 | 0.00 | 0.43 | 0.43 | 73 | 1009.8 |
| 20260831204949 | 30 | 149 | 3.2 | 3.2 | 0.00 | 0.43 | 0.43 | 74 | 1010.2 |
| 20260831204448 | 31 | 135 | 1.6 | 3.2 | 0.00 | 0.43 | 0.43 | 73 | 1010.2 |
| 20260831203942 | 31 | 119 | 1.6 | 3.2 | 0.00 | 0.43 | 0.43 | 76 | 1010.1 |
| 20260831203436 | 30 | 140 | 1.6 | 4.8 | 0.00 | 0.43 | 0.43 | 74 | 1010.2 |
| 20260831202934 | 30 | 189 | 4.8 | 4.8 | 0.00 | 0.43 | 0.43 | 76 | 1010.5 |
| 20260831202430 | 29 | 103 | 3.2 | 4.8 | 0.00 | 0.43 | 0.43 | 76 | 1010.6 |
| 20260831201924 | 29 | 97 | 0.0 | 3.2 | 0.00 | 0.43 | 0.43 | 80 | 1010.6 |
| 20260831201422 | 30 | 82 | 1.6 | 1.6 | 0.00 | 0.43 | 0.43 | 78 | 1010.7 |
| 20260831200918 | 30 | 279 | 3.2 | 3.2 | 0.00 | 0.43 | 0.43 | 76 | 1010.5 |
| 20260831200413 | 31 | 260 | 3.2 | 3.2 | 0.00 | 0.43 | 0.43 | 71 | 1010.5 |
| 20260831195908 | 31 | 158 | 1.6 | 1.6 | 0.00 | 0.43 | 0.43 | 75 | 1010.2 |
| 20260831195404 | 29 | 118 | 0.0 | 0.0 | 0.00 | 0.43 | 0.43 | 76 | 1010.2 |
| 20260831194859 | 28 | 98 | 0.0 | 0.0 | 0.00 | 0.43 | 0.43 | 79 | 1010.3 |
| 20260831194354 | 28 | 99 | 0.0 | 1.6 | 0.00 | 0.43 | 0.43 | 81 | 1010.3 |
| 20260831193853 | 28 | 125 | 0.0 | 4.8 | 0.00 | 0.43 | 0.43 | 78 | 1010.2 |
| 20260831193349 | 30 | 159 | 1.6 | 4.8 | 0.00 | 0.43 | 0.43 | 72 | 1010.1 |
| 20260831192843 | 30 | 155 | 1.6 | 4.8 | 0.00 | 0.43 | 0.43 | 71 | 1010.3 |
| 20260831192338 | 30 | 150 | 1.6 | 4.8 | 0.00 | 0.43 | 0.43 | 69 | 1010.7 |
| 20260831191834 | 30 | 293 | 6.4 | 12.9 | 0.00 | 0.43 | 0.43 | 67 | 1010.7 |
| 20260831191331 | 31 | 184 | 1.6 | 14.5 | 0.00 | 0.43 | 0.43 | 64 | 1010.5 |
| 20260831190826 | 31 | 270 | 4.8 | 9.7 | 0.00 | 0.43 | 0.43 | 64 | 1010.6 |
| 20260831190326 | 31 | 170 | 3.2 | 8.0 | 0.00 | 0.43 | 0.43 | 65 | 1010.3 |
| 20260831185825 | 31 | 292 | 4.8 | 8.0 | 0.00 | 0.43 | 0.43 | 64 | 1010.4 |
| 20260831185321 | 31 | 283 | 8.0 | 11.3 | 0.00 | 0.43 | 0.43 | 65 | 1010.7 |
| 20260831184820 | 31 | 145 | 3.2 | 4.8 | 0.00 | 0.43 | 0.43 | 65 | 1010.4 |
| 20260831184316 | 31 | 196 | 8.0 | 12.9 | 0.00 | 0.43 | 0.43 | 65 | 1010.6 |
| 20260831183811 | 31 | 217 | 3.2 | 8.0 | 0.00 | 0.43 | 0.43 | 67 | 1010.4 |
| 20260831183310 | 30 | 270 | 6.4 | 12.9 | 0.00 | 0.43 | 0.43 | 66 | 1010.6 |
| 20260831182809 | 30 | 190 | 3.2 | 8.0 | 0.00 | 0.43 | 0.43 | 66 | 1010.6 |
| 20260831182305 | 30 | 108 | 0.0 | 12.9 | 0.00 | 0.43 | 0.43 | 66 | 1010.3 |
| 20260831181800 | 30 | 218 | 4.8 | 8.0 | 0.00 | 0.43 | 0.43 | 64 | 1010.7 |
| 20260831181254 | 30 | 275 | 8.0 | 11.3 | 0.00 | 0.43 | 0.43 | 67 | 1010.7 |
| 20260831180749 | 30 | 171 | 4.8 | 9.7 | 0.00 | 0.43 | 0.43 | 65 | 1010.6 |
| 20260831180244 | 30 | 152 | 6.4 | 9.7 | 0.00 | 0.43 | 0.43 | 65 | 1010.7 |
| 20260831175743 | 30 | 169 | 3.2 | 8.0 | 0.00 | 0.43 | 0.43 | 67 | 1010.6 |
| 20260831175240 | 29 | 182 | 4.8 | 11.3 | 0.00 | 0.43 | 0.43 | 69 | 1010.8 |
| 20260831174735 | 29 | 183 | 4.8 | 4.8 | 0.00 | 0.43 | 0.43 | 68 | 1011.0 |
| 20260831174231 | 28 | 210 | 1.6 | 9.7 | 0.00 | 0.43 | 0.43 | 68 | 1011.1 |
| 20260831173729 | 28 | 210 | 3.2 | 9.7 | 0.00 | 0.43 | 0.43 | 68 | 1011.0 |
| 20260831173224 | 28 | 281 | 8.0 | 11.3 | 0.00 | 0.43 | 0.43 | 68 | 1011.1 |
| 20260831172719 | 28 | 317 | 4.8 | 16.1 | 0.00 | 0.43 | 0.43 | 69 | 1011.1 |
| 20260831172214 | 28 | 219 | 3.2 | 8.0 | 0.00 | 0.43 | 0.43 | 70 | 1011.0 |
| 20260831171709 | 28 | 221 | 1.6 | 3.2 | 0.00 | 0.43 | 0.43 | 71 | 1011.1 |
| 20260831171207 | 27 | 218 | 1.6 | 11.3 | 0.00 | 0.43 | 0.43 | 72 | 1011.2 |
| 20260831170702 | 27 | 318 | 4.8 | 9.7 | 0.00 | 0.43 | 0.43 | 73 | 1011.1 |
| 20260831170159 | 27 | 235 | 3.2 | 4.8 | 0.00 | 0.43 | 0.43 | 75 | 1011.3 |
| 20260831165655 | 26 | 327 | 1.6 | 8.0 | 0.00 | 0.43 | 0.43 | 76 | 1011.4 |
| 20260831165151 | 26 | 237 | 1.6 | 11.3 | 0.00 | 0.43 | 0.43 | 78 | 1011.5 |
| 20260831164646 | 26 | 230 | 6.4 | 8.0 | 0.00 | 0.43 | 0.43 | 77 | 1011.6 |
| 20260831164143 | 26 | 232 | 3.2 | 4.8 | 0.00 | 0.43 | 0.43 | 79 | 1011.6 |
| 20260831163637 | 25 | 320 | 1.6 | 4.8 | 0.00 | 0.43 | 0.43 | 79 | 1011.7 |
| 20260831163133 | 25 | 233 | 4.8 | 8.0 | 0.00 | 0.43 | 0.43 | 81 | 1011.7 |
| 20260831162632 | 25 | 234 | 1.6 | 4.8 | 0.00 | 0.43 | 0.43 | 82 | 1012.1 |
| 20260831162130 | 25 | 316 | 1.6 | 3.2 | 0.00 | 0.43 | 0.43 | 84 | 1011.8 |
| 20260831161626 | 24 | 240 | 1.6 | 4.8 | 0.00 | 0.43 | 0.43 | 83 | 1011.7 |
| 20260831161122 | 24 | 324 | 3.2 | 4.8 | 0.00 | 0.43 | 0.43 | 85 | 1011.8 |
| 20260831160621 | 23 | 242 | 3.2 | 3.2 | 0.00 | 0.43 | 0.43 | 87 | 1012.1 |
| 20260831160116 | 23 | 236 | 4.8 | 8.0 | 0.00 | 0.43 | 0.43 | 88 | 1011.7 |
| 20260831155611 | 23 | 233 | 6.4 | 9.7 | 0.00 | 0.43 | 0.43 | 89 | 1011.9 |
| 20260831155107 | 22 | 322 | 4.8 | 8.0 | 0.00 | 0.43 | 0.43 | 91 | 1011.9 |
| 20260831154603 | 22 | 273 | 1.6 | 8.0 | 0.00 | 0.43 | 0.43 | 93 | 1012.1 |
| 20260831154102 | 21 | 242 | 1.6 | 3.2 | 0.00 | 0.43 | 0.43 | 95 | 1011.8 |
| 20260831153602 | 21 | 308 | 1.6 | 3.2 | 0.00 | 0.43 | 0.43 | 96 | 1012.2 |
| 20260831153059 | 21 | 259 | 1.6 | 3.2 | 0.00 | 0.43 | 0.43 | 96 | 1011.9 |
| 20260831152554 | 21 | 312 | 3.2 | 4.8 | 0.00 | 0.43 | 0.43 | 97 | 1012.3 |
| 20260831152049 | 21 | 303 | 0.0 | 0.0 | 0.00 | 0.43 | 0.43 | 98 | 1012.2 |
| 20260831151549 | 21 | 247 | 1.6 | 3.2 | 0.00 | 0.43 | 0.43 | 98 | 1012.1 |
| 20260831151049 | 21 | 298 | 0.0 | 1.6 | 0.00 | 0.43 | 0.43 | 98 | 1012.2 |
| 20260831150538 | 21 | 313 | 0.0 | 1.6 | 0.13 | 0.43 | 0.43 | 98 | 1012.3 |
| 20260831150035 | 21 | 318 | 1.6 | 1.6 | 0.00 | 0.41 | 0.41 | 98 | 1012.5 |
| 20260831145529 | 21 | 315 | 0.0 | 1.6 | 0.00 | 0.41 | 0.41 | 98 | 1012.2 |
| 20260831145025 | 21 | 310 | 0.0 | 0.0 | 0.00 | 0.41 | 0.41 | 98 | 1012.3 |
| 20260831144520 | 21 | 272 | 0.0 | 1.6 | 0.00 | 0.41 | 0.41 | 98 | 1012.3 |
| 20260831144015 | 21 | 305 | 0.0 | 1.6 | 0.00 | 0.41 | 0.41 | 98 | 1012.2 |
| 20260831143510 | 21 | 313 | 1.6 | 3.2 | 0.00 | 0.41 | 0.41 | 98 | 1012.1 |
| 20260831143005 | 21 | 321 | 1.6 | 1.6 | 0.36 | 0.41 | 0.41 | 98 | 1011.8 |
| 20260831142456 | 21 | 318 | 0.0 | 1.6 | 0.48 | 0.41 | 0.41 | 97 | 1011.7 |
| 20260831141950 | 21 | 237 | 3.2 | 3.2 | 0.13 | 0.36 | 0.36 | 98 | 1012.1 |
| 20260831141444 | 20 | 326 | 3.2 | 4.8 | 0.00 | 0.33 | 0.33 | 98 | 1012.3 |
| 20260831140939 | 20 | 267 | 0.0 | 1.6 | 0.00 | 0.33 | 0.33 | 98 | 1012.1 |
| 20260831140433 | 20 | 312 | 0.0 | 3.2 | 0.00 | 0.33 | 0.33 | 98 | 1012.2 |
| 20260831135932 | 20 | 310 | 0.0 | 3.2 | 0.00 | 0.33 | 0.33 | 99 | 1012.1 |
| 20260831135431 | 20 | 322 | 3.2 | 3.2 | 0.00 | 0.33 | 0.33 | 99 | 1012.2 |
| 20260831134926 | 20 | 320 | 1.6 | 3.2 | 0.00 | 0.33 | 0.33 | 99 | 1012.2 |
| 20260831134423 | 20 | 312 | 0.0 | 1.6 | 0.00 | 0.33 | 0.33 | 99 | 1012.2 |
| 20260831133923 | 20 | 315 | 0.0 | 0.0 | 0.18 | 0.33 | 0.33 | 99 | 1012.5 |
| 20260831133418 | 20 | 316 | 0.0 | 0.0 | 0.18 | 0.33 | 0.33 | 98 | 1012.3 |
| 20260831132918 | 20 | 312 | 0.0 | 1.6 | 0.00 | 0.30 | 0.30 | 98 | 1012.2 |
| 20260831132414 | 20 | 308 | 0.0 | 0.0 | 0.00 | 0.30 | 0.30 | 98 | 1012.4 |
| 20260831131913 | 20 | 247 | 1.6 | 1.6 | 0.00 | 0.30 | 0.30 | 97 | 1012.3 |
| 20260831131408 | 20 | 309 | 0.0 | 1.6 | 0.00 | 0.30 | 0.30 | 97 | 1012.1 |
| 20260831130904 | 20 | 310 | 0.0 | 1.6 | 0.00 | 0.30 | 0.30 | 97 | 1012.2 |
| 20260831130359 | 20 | 254 | 1.6 | 3.2 | 0.43 | 0.30 | 0.30 | 96 | 1012.1 |
| 20260831125858 | 20 | 313 | 1.6 | 1.6 | 1.02 | 0.30 | 0.30 | 97 | 1011.9 |
| 20260831125354 | 20 | 306 | 0.0 | 1.6 | 0.61 | 0.20 | 0.20 | 96 | 1012.5 |
| 20260831124848 | 21 | 306 | 0.0 | 1.6 | 0.18 | 0.13 | 0.13 | 95 | 1012.5 |
| 20260831124344 | 21 | 306 | 0.0 | 0.0 | 0.13 | 0.10 | 0.10 | 94 | 1012.2 |
| 20260831123839 | 21 | 309 | 0.0 | 0.0 | 0.48 | 0.10 | 0.10 | 92 | 1012.8 |
| 20260831123338 | 21 | 310 | 0.0 | 1.6 | 0.48 | 0.08 | 0.08 | 90 | 1012.6 |
| 20260831122833 | 22 | 310 | 1.6 | 1.6 | 0.00 | 0.00 | 0.00 | 87 | 1012.5 |
| 20260831122329 | 22 | 307 | 0.0 | 1.6 | 0.00 | 0.00 | 0.00 | 87 | 1012.3 |
| 20260831121829 | 22 | 248 | 0.0 | 1.6 | 0.00 | 0.00 | 0.00 | 85 | 1012.1 |
| 20260831121325 | 22 | 246 | 0.0 | 1.6 | 0.00 | 0.00 | 0.00 | 82 | 1011.5 |
| 20260831120820 | 22 | 247 | 0.0 | 1.6 | 0.00 | 0.00 | 0.00 | 82 | 1011.4 |
| 20260831120314 | 22 | 244 | 1.6 | 3.2 | 0.00 | 0.00 | 0.00 | 82 | 1011.4 |
| 20260831115810 | 22 | 248 | 0.0 | 3.2 | 0.00 | 0.00 | 0.00 | 82 | 1011.1 |
| 20260831115306 | 22 | 241 | 3.2 | 3.2 | 0.00 | 0.00 | 0.00 | 82 | 1011.1 |
| 20260831114804 | 22 | 242 | 1.6 | 8.0 | 0.00 | 0.00 | 0.00 | 83 | 1010.9 |
| 20260831114259 | 22 | 242 | 1.6 | 9.7 | 0.00 | 0.00 | 0.00 | 83 | 1011.0 |
| 20260831113754 | 22 | 246 | 3.2 | 8.0 | 0.00 | 0.00 | 0.00 | 83 | 1011.0 |
| 20260831113248 | 22 | 245 | 3.2 | 4.8 | 0.00 | 0.00 | 0.00 | 83 | 1010.9 |
| 20260831112748 | 22 | 242 | 3.2 | 4.8 | 0.00 | 0.00 | 0.00 | 82 | 1011.0 |
| 20260831112243 | 22 | 243 | 1.6 | 3.2 | 0.00 | 0.00 | 0.00 | 82 | 1010.8 |
| 20260831111739 | 22 | 243 | 4.8 | 4.8 | 0.00 | 0.00 | 0.00 | 81 | 1010.8 |
| 20260831111235 | 22 | 257 | 3.2 | 9.7 | 0.00 | 0.00 | 0.00 | 81 | 1010.5 |
| 20260831110731 | 22 | 265 | 1.6 | 3.2 | 0.00 | 0.00 | 0.00 | 81 | 1010.6 |
| 20260831110226 | 22 | 263 | 1.6 | 3.2 | 0.00 | 0.00 | 0.00 | 81 | 1010.8 |
| 20260831105724 | 22 | 276 | 1.6 | 1.6 | 0.00 | 0.00 | 0.00 | 81 | 1010.7 |
| 20260831105220 | 22 | 266 | 3.2 | 4.8 | 0.00 | 0.00 | 0.00 | 80 | 1010.8 |
| 20260831104715 | 22 | 241 | 1.6 | 4.8 | 0.00 | 0.00 | 0.00 | 80 | 1010.8 |
| 20260831104211 | 22 | 249 | 4.8 | 8.0 | 0.00 | 0.00 | 0.00 | 80 | 1011.0 |
| 20260831103711 | 22 | 272 | 3.2 | 4.8 | 0.00 | 0.00 | 0.00 | 80 | 1011.0 |
| 20260831103207 | 22 | 257 | 3.2 | 3.2 | 0.00 | 0.00 | 0.00 | 81 | 1010.8 |
| 20260831102706 | 22 | 269 | 0.0 | 3.2 | 0.00 | 0.00 | 0.00 | 81 | 1011.0 |
| 20260831102201 | 22 | 259 | 1.6 | 1.6 | 0.00 | 0.00 | 0.00 | 81 | 1011.1 |
| 20260831101656 | 22 | 268 | 3.2 | 3.2 | 0.00 | 0.00 | 0.00 | 80 | 1011.0 |
| 20260831101152 | 23 | 264 | 1.6 | 4.8 | 0.00 | 0.00 | 0.00 | 79 | 1010.9 |
| 20260831100648 | 23 | 249 | 3.2 | 4.8 | 0.00 | 0.00 | 0.00 | 79 | 1010.9 |
| 20260831100144 | 23 | 259 | 1.6 | 4.8 | 0.00 | 0.00 | 0.00 | 79 | 1010.8 |
| 20260831095642 | 23 | 255 | 1.6 | 4.8 | 0.00 | 0.00 | 0.00 | 79 | 1010.8 |
| 20260831095137 | 23 | 276 | 1.6 | 3.2 | 0.00 | 0.00 | 0.00 | 80 | 1010.7 |
| 20260831094632 | 23 | 260 | 1.6 | 3.2 | 0.00 | 0.00 | 0.00 | 80 | 1010.7 |
| 20260831094129 | 23 | 264 | 1.6 | 3.2 | 0.00 | 0.00 | 0.00 | 80 | 1010.6 |
| 20260831093624 | 23 | 245 | 4.8 | 8.0 | 0.00 | 0.00 | 0.00 | 80 | 1010.7 |
| 20260831093120 | 23 | 276 | 0.0 | 4.8 | 0.00 | 0.00 | 0.00 | 80 | 1010.8 |
| 20260831092616 | 23 | 285 | 0.0 | 1.6 | 0.00 | 0.00 | 0.00 | 80 | 1011.0 |
| 20260831092111 | 23 | 277 | 0.0 | 1.6 | 0.00 | 0.00 | 0.00 | 80 | 1011.2 |
| 20260831091611 | 23 | 280 | 1.6 | 8.0 | 0.00 | 0.00 | 0.00 | 80 | 1011.0 |
| 20260831091106 | 23 | 260 | 1.6 | 3.2 | 0.00 | 0.00 | 0.00 | 80 | 1010.8 |
| 20260831090602 | 23 | 270 | 3.2 | 4.8 | 0.00 | 0.00 | 0.00 | 80 | 1011.0 |
| 20260831090058 | 23 | 282 | 0.0 | 1.6 | 0.00 | 0.00 | 0.00 | 80 | 1010.8 |
| 20260831085553 | 23 | 268 | 1.6 | 3.2 | 0.00 | 0.00 | 0.00 | 81 | 1010.9 |
| 20260831085048 | 23 | 282 | 1.6 | 1.6 | 0.00 | 0.00 | 0.00 | 82 | 1011.0 |
| 20260831084544 | 23 | 270 | 1.6 | 3.2 | 0.00 | 0.00 | 0.00 | 82 | 1011.2 |
| 20260831084040 | 23 | 282 | 0.0 | 1.6 | 0.00 | 0.00 | 0.00 | 82 | 1011.0 |
| 20260831083536 | 23 | 258 | 0.0 | 3.2 | 0.00 | 0.00 | 0.00 | 82 | 1011.2 |
| 20260831083030 | 23 | 248 | 0.0 | 3.2 | 0.00 | 0.00 | 0.00 | 83 | 1011.0 |
| 20260831082530 | 23 | 249 | 1.6 | 3.2 | 0.00 | 0.00 | 0.00 | 82 | 1011.1 |
| 20260831082025 | 23 | 250 | 1.6 | 1.6 | 0.00 | 0.00 | 0.00 | 83 | 1010.9 |
| 20260831081521 | 23 | 247 | 1.6 | 1.6 | 0.00 | 0.00 | 0.00 | 82 | 1011.0 |
| 20260831081016 | 23 | 247 | 0.0 | 3.2 | 0.00 | 0.00 | 0.00 | 82 | 1010.9 |
| 20260831080510 | 23 | 250 | 1.6 | 4.8 | 0.00 | 0.00 | 0.00 | 82 | 1010.8 |
| 20260831080007 | 23 | 240 | 3.2 | 4.8 | 0.00 | 0.00 | 0.00 | 82 | 1010.9 |
| 20260831075501 | 23 | 242 | 0.0 | 3.2 | 0.00 | 0.00 | 0.00 | 83 | 1011.0 |
| 20260831074957 | 23 | 242 | 1.6 | 3.2 | 0.00 | 0.00 | 0.00 | 82 | 1011.0 |
| 20260831074451 | 23 | 248 | 4.8 | 8.0 | 0.00 | 0.00 | 0.00 | 82 | 1010.9 |
| 20260831073950 | 23 | 241 | 3.2 | 4.8 | 0.00 | 0.00 | 0.00 | 81 | 1011.0 |
| 20260831073445 | 23 | 241 | 3.2 | 8.0 | 0.00 | 0.00 | 0.00 | 81 | 1010.9 |
| 20260831072944 | 23 | 244 | 1.6 | 4.8 | 0.00 | 0.00 | 0.00 | 81 | 1011.0 |
| 20260831072440 | 23 | 243 | 1.6 | 1.6 | 0.00 | 0.00 | 0.00 | 81 | 1010.9 |
| 20260831071937 | 23 | 242 | 1.6 | 3.2 | 0.00 | 0.00 | 0.00 | 81 | 1011.2 |
| 20260831071435 | 23 | 242 | 3.2 | 3.2 | 0.00 | 0.00 | 0.00 | 82 | 1011.2 |
| 20260831070930 | 23 | 244 | 0.0 | 1.6 | 0.00 | 0.00 | 0.00 | 82 | 1011.1 |
| 20260831070430 | 23 | 285 | 1.6 | 3.2 | 0.00 | 0.00 | 0.00 | 82 | 1011.2 |
| 20260831065929 | 23 | 244 | 0.0 | 4.8 | 0.00 | 0.00 | 0.00 | 81 | 1011.1 |
| 20260831065427 | 23 | 263 | 1.6 | 4.8 | 0.00 | 0.00 | 0.00 | 82 | 1011.0 |
| 20260831064922 | 23 | 244 | 1.6 | 3.2 | 0.00 | 0.00 | 0.00 | 83 | 1011.2 |
| 20260831064417 | 23 | 242 | 1.6 | 4.8 | 0.00 | 0.00 | 0.00 | 83 | 1011.2 |
| 20260831063913 | 23 | 244 | 1.6 | 3.2 | 0.00 | 0.00 | 0.00 | 83 | 1011.4 |
| 20260831063408 | 23 | 239 | 4.8 | 4.8 | 0.00 | 0.00 | 0.00 | 84 | 1011.2 |
| 20260831062902 | 23 | 245 | 1.6 | 3.2 | 0.00 | 0.00 | 0.00 | 85 | 1011.2 |
| 20260831062358 | 23 | 245 | 1.6 | 3.2 | 0.00 | 0.00 | 0.00 | 85 | 1011.0 |
| 20260831061856 | 23 | 245 | 1.6 | 3.2 | 0.00 | 0.00 | 0.00 | 85 | 1010.9 |
| 20260831061355 | 23 | 244 | 1.6 | 4.8 | 0.00 | 0.00 | 0.00 | 85 | 1011.0 |
| 20260831060851 | 23 | 251 | 1.6 | 4.8 | 0.00 | 0.00 | 0.00 | 85 | 1011.1 |
| 20260831060346 | 23 | 240 | 1.6 | 9.7 | 0.00 | 0.00 | 0.00 | 84 | 1011.2 |
| 20260831055845 | 23 | 241 | 3.2 | 4.8 | 0.00 | 0.00 | 0.00 | 85 | 1011.1 |
| 20260831055341 | 23 | 244 | 1.6 | 3.2 | 0.00 | 0.00 | 0.00 | 85 | 1011.1 |
| 20260831054836 | 23 | 247 | 3.2 | 3.2 | 0.00 | 0.00 | 0.00 | 85 | 1011.1 |
| 20260831054331 | 23 | 242 | 1.6 | 4.8 | 0.00 | 0.00 | 0.00 | 85 | 1010.9 |
| 20260831053830 | 23 | 240 | 3.2 | 3.2 | 0.00 | 0.00 | 0.00 | 86 | 1011.0 |
| 20260831053329 | 23 | 239 | 4.8 | 4.8 | 0.00 | 0.00 | 0.00 | 87 | 1010.9 |
| 20260831052824 | 23 | 241 | 1.6 | 9.7 | 0.00 | 0.00 | 0.00 | 86 | 1011.0 |
| 20260831052323 | 23 | 227 | 6.4 | 9.7 | 0.00 | 0.00 | 0.00 | 87 | 1010.8 |
| 20260831051821 | 23 | 234 | 3.2 | 12.9 | 0.00 | 0.00 | 0.00 | 87 | 1010.9 |
| 20260831051320 | 23 | 260 | 4.8 | 9.7 | 0.00 | 0.00 | 0.00 | 88 | 1010.9 |
| 20260831050815 | 23 | 250 | 1.6 | 9.7 | 0.00 | 0.00 | 0.00 | 89 | 1010.9 |
| 20260831050314 | 23 | 280 | 3.2 | 4.8 | 0.00 | 0.00 | 0.00 | 89 | 1011.0 |
| 20260831045808 | 23 | 249 | 1.6 | 4.8 | 0.00 | 0.53 | 0.53 | 90 | 1011.0 |
| 20260831045306 | 23 | 263 | 1.6 | 4.8 | 0.00 | 0.53 | 0.53 | 91 | 1011.0 |
| 20260831044758 | 23 | 291 | 1.6 | 3.2 | 0.00 | 0.53 | 0.53 | 92 | 1011.2 |
| 20260831044252 | 23 | 228 | 4.8 | 4.8 | 0.00 | 0.53 | 0.53 | 93 | 1011.0 |
| 20260831043749 | 23 | 260 | 1.6 | 1.6 | 0.00 | 0.53 | 0.53 | 94 | 1011.2 |
| 20260831043243 | 23 | 293 | 1.6 | 8.0 | 0.00 | 0.53 | 0.53 | 94 | 1011.3 |
| 20260831042743 | 23 | 271 | 4.8 | 4.8 | 0.00 | 0.53 | 0.53 | 95 | 1011.3 |
| 20260831042238 | 23 | 294 | 1.6 | 4.8 | 0.00 | 0.53 | 0.53 | 96 | 1011.4 |
| 20260831041733 | 23 | 300 | 1.6 | 3.2 | 0.00 | 0.53 | 0.53 | 96 | 1011.5 |
| 20260831041232 | 23 | 301 | 0.0 | 1.6 | 0.00 | 0.53 | 0.53 | 96 | 1011.8 |
| 20260831040726 | 23 | 301 | 1.6 | 3.2 | 0.00 | 0.53 | 0.53 | 97 | 1011.7 |
| 20260831040226 | 23 | 306 | 1.6 | 3.2 | 0.00 | 0.53 | 0.53 | 97 | 1011.8 |
| 20260831035719 | 23 | 300 | 1.6 | 1.6 | 0.00 | 0.53 | 0.53 | 98 | 1011.6 |
| 20260831035219 | 22 | 292 | 1.6 | 1.6 | 0.00 | 0.53 | 0.53 | 98 | 1011.8 |
| 20260831034718 | 22 | 301 | 0.0 | 1.6 | 0.00 | 0.53 | 0.53 | 99 | 1011.7 |
| 20260831034214 | 22 | 300 | 0.0 | 1.6 | 0.00 | 0.53 | 0.53 | 99 | 1012.1 |
| 20260831033709 | 22 | 305 | 0.0 | 1.6 | 0.00 | 0.53 | 0.53 | 99 | 1011.9 |
| 20260831033208 | 22 | 308 | 0.0 | 3.2 | 0.00 | 0.53 | 0.53 | 99 | 1012.3 |
| 20260831032703 | 22 | 309 | 0.0 | 1.6 | 0.00 | 0.53 | 0.53 | 99 | 1012.3 |
| 20260831032154 | 22 | 305 | 0.0 | 0.0 | 0.00 | 0.53 | 0.53 | 99 | 1012.3 |
| 20260831031653 | 22 | 312 | 0.0 | 0.0 | 0.00 | 0.53 | 0.53 | 99 | 1012.5 |
| 20260831031147 | 22 | 313 | 0.0 | 0.0 | 0.00 | 0.53 | 0.53 | 99 | 1012.7 |
| 20260831030646 | 22 | 310 | 1.6 | 1.6 | 0.00 | 0.53 | 0.53 | 99 | 1012.6 |
| 20260831030145 | 22 | 309 | 0.0 | 0.0 | 0.00 | 0.53 | 0.53 | 99 | 1012.8 |
| 20260831025643 | 22 | 313 | 0.0 | 1.6 | 0.00 | 0.53 | 0.53 | 99 | 1012.5 |
| 20260831025138 | 23 | 313 | 0.0 | 0.0 | 0.18 | 0.53 | 0.53 | 99 | 1012.6 |
| 20260831024635 | 23 | 314 | 0.0 | 1.6 | 0.18 | 0.53 | 0.53 | 98 | 1012.8 |
| 20260831024133 | 23 | 313 | 0.0 | 1.6 | 0.13 | 0.51 | 0.51 | 97 | 1012.8 |
| 20260831023632 | 23 | 303 | 1.6 | 3.2 | 0.13 | 0.51 | 0.51 | 97 | 1012.5 |
| 20260831023126 | 23 | 307 | 0.0 | 1.6 | 0.00 | 0.48 | 0.48 | 98 | 1012.5 |
| 20260831022621 | 23 | 304 | 0.0 | 1.6 | 0.00 | 0.48 | 0.48 | 98 | 1012.7 |
| 20260831022116 | 23 | 311 | 0.0 | 1.6 | 0.00 | 0.48 | 0.48 | 98 | 1012.6 |
| 20260831021615 | 22 | 300 | 0.0 | 1.6 | 0.00 | 0.48 | 0.48 | 98 | 1012.6 |
| 20260831021111 | 22 | 310 | 0.0 | 0.0 | 0.00 | 0.48 | 0.48 | 98 | 1012.8 |
| 20260831020607 | 22 | 311 | 0.0 | 0.0 | 0.00 | 0.48 | 0.48 | 98 | 1012.7 |
| 20260831015557 | 23 | 312 | 0.0 | 0.0 | 0.00 | 0.48 | 0.48 | 97 | 1013.0 |
| 20260831015051 | 23 | 306 | 1.6 | 1.6 | 0.00 | 0.48 | 0.48 | 97 | 1012.7 |
| 20260831014546 | 23 | 310 | 0.0 | 1.6 | 0.00 | 0.48 | 0.48 | 97 | 1012.6 |
| 20260831014042 | 22 | 309 | 0.0 | 1.6 | 0.00 | 0.48 | 0.48 | 98 | 1012.4 |
| 20260831013537 | 22 | 307 | 0.0 | 0.0 | 0.00 | 0.48 | 0.48 | 98 | 1012.3 |
| 20260831013032 | 22 | 305 | 0.0 | 0.0 | 0.00 | 0.48 | 0.48 | 98 | 1012.6 |
| 20260831012527 | 22 | 311 | 0.0 | 0.0 | 0.00 | 0.48 | 0.48 | 98 | 1012.4 |
| 20260831012026 | 22 | 311 | 0.0 | 0.0 | 0.00 | 0.48 | 0.48 | 98 | 1012.4 |
| 20260831011521 | 22 | 310 | 0.0 | 0.0 | 0.00 | 0.48 | 0.48 | 98 | 1012.3 |
| 20260831011016 | 22 | 308 | 0.0 | 0.0 | 0.00 | 0.48 | 0.48 | 98 | 1012.2 |
| 20260831010511 | 22 | 310 | 0.0 | 0.0 | 0.00 | 0.48 | 0.48 | 98 | 1012.2 |
| 20260831010008 | 22 | 313 | 0.0 | 0.0 | 0.00 | 0.48 | 0.48 | 97 | 1012.3 |
| 20260831005502 | 23 | 310 | 0.0 | 0.0 | 0.00 | 0.48 | 0.48 | 97 | 1012.4 |
| 20260831005001 | 23 | 309 | 0.0 | 0.0 | 0.00 | 0.48 | 0.48 | 97 | 1011.9 |
| 20260831004458 | 23 | 310 | 0.0 | 0.0 | 0.00 | 0.48 | 0.48 | 96 | 1011.9 |